Location: Berlin
(38.3226°N, 75.2177°W)
Time: 06:07:33
(UTC+00:00)

Cosmos 44 Rocket - Pass Details

Date: 26 October 2020
Orbit: 642 x 748 km, 65.1° (Epoch: 26 November)

Event Time Altitude Azimuth Distance (km) Brightness Sun altitude
Exits shadow 10:04:23 17° 314° (NW) 1,830 5.0 -15.7°
Maximum altitude 10:08:11 50° 245° (WSW) 949 3.6 -14.9°
Drops below altitude 10° 10:13:10 10° 171° (S) 2,255 6.1 -14.0°
Sets 10:15:36 0° 166° (SSE) 3,173 7.0 -13.5°
